Vertical_Velocity
-2 -1 -3 -1 -2 0 -1 -1 -1 -0 -0 0 -1 1 1 -0 -2 0 2 1 1 3 -1 1 -0 -1 -1 -0 -1 -0 -0 -0 -0
0 -1 0 0 -1 1 0 3 1 -0 1 2 0 1 -1 -2 -1 -1 2 -0 1 -1 1 2 -1 1 0 -0 1 1 0 -1 0
-2 -1 -1 1 0 -0 -0 0 0 -0 -0 0 -1 -0 1 -1 1 -2 2 4 -0 -1 -0 0 1 1 1 1 1 1 2 1 1
-1 -2 0 -1 -0 0 -0 -1 2 -1 1 -0 0 -1 0 -0 1 3 -2 -1 1 -2 2 1 0 1 0 -0 -0 1 -1 0 0
1 -1 -0 0 -1 -0 -1 1 0 -1 1 2 0 0 2 1 -0 3 0 2 2 1 0 1 -0 1 1 1 1 -0 1 2 -1
-0 -1 -0 -1 -0 -1 -1 1 1 1 1 -0 0 -1 -0 -2 -4 -3 -0 2 -1 -5 1 0 0 0 2 -0 1 1 1 1 4
0 -0 1 0 1 1 -1 -1 2 0 1 1 0 -3 -2 -3 -4 -2 -0 -1 -2 0 -0 -4 -0 0 0 -1 -1 -1 -1 -0 0
-1 -2 -0 1 1 0 1 0 -2 -0 -1 -1 0 -2 -0 -2 1 2 -1 2 1 1 3 1 4 -5 3 0 1 -2 -0 -0 -2
-1 -1 -0 -0 -1 -2 0 -0 -2 -3 -1 -3 -5 -1 2 7 3 9 6 7 5 -0 3 1 4 1 -0 -2 -5 -4 3 -1 -1
-2 0 1 0 0 -2 -1 1 -2 -2 1 4 5 1 0 -1 1 2 1 1 0 -0 0 -2 -1 3 7 10 7 6 6 5 3
2 2 2 4 1 4 5 1 -2 -1 -3 -1 -3 -1 -3 -3 -1 -1 1 2 -0 0 2 1 7 -1 -1 1 1 -0 4 0 2
-1 -0 1 1 1 0 -0 -0 1 2 1 -2 -2 -4 -3 -2 1 -0 -0 -5 -1 0 0 1 -3 1 6 8 7 4 -2 2 7
0 -1 0 -0 -1 -2 -2 -4 -1 0 -3 -3 -1 -1 -0 4 2 -1 -1 1 1 -1 1 2 -1 0 1 -2 -3 -4 2 8 6
-4 -2 -0 -1 -1 -1 0 1 -2 -3 -3 -1 -3 -2 -2 1 -1 1 -0 0 1 -0 -1 2 3 -1 2 -2 1 4 2 0 -1
1 -0 -1 0 -1 -0 -0 -2 1 -1 -4 -2 -3 -2 -2 -2 -0 -2 -2 1 -1 0 2 -1 0 3 4 1 5 0 -2 -2 1
-1 -1 0 -1 -1 -3 -4 -2 -3 -0 -3 -4 -6 -6 -2 -2 0 -0 -2 -3 -2 1 -3 -4 -5 -7 -4 -2 -1 0 4 5 -2
-0 -2 -2 -2 -0 -0 -2 -3 -4 -2 -1 -2 -1 -5 -11 0 -10 -3 -5 -1 -1 -3 -2 -3 -4 -2 -3 -5 -4 -2 -2 -5 -4
-1 -1 -1 -1 -2 -2 -3 -1 -3 -3 1 4 0 -3 -2 -9 -1 -6 -5 -0 -6 -6 -7 -6 -4 -3 -3 -3 -2 -4 -3 -2 -1
-1 -2 -3 -3 -2 -1 -1 -1 -1 -2 -2 -1 4 7 11 -1 -11 -11 -16 -1 -1 -1 -4 -2 -3 0 -6 -3 -1 -2 4 -4 -2
-2 -2 -2 -2 -1 -1 -1 0 0 0 -1 -2 -8 -3 0 8 11 -6 -17 -13 -10 -4 -2 -4 -1 -3 1 -4 -7 -1 -1 -1 -1
Height
1511 1511 1511 1510 1510 1509 1508 1508 1508 1507 1508 1508 1507 1506 1506 1505 1505 1505 1505 1503 1503 1505 1504 1503 1504 1504 1505 1505 1505 1505 1505 1504 1504
1510 1510 1510 1510 1509 1508 1507 1507 1507 1506 1506 1506 1505 1505 1504 1504 1504 1503 1503 1502 1501 1502 1503 1503 1501 1502 1502 1502 1502 1502 1501 1501 1501
1509 1510 1509 1509 1509 1508 1507 1507 1506 1506 1505 1505 1505 1504 1504 1503 1503 1502 1501 1500 1499 1499 1500 1499 1499 1499 1499 1499 1499 1498 1498 1498 1498
1508 1508 1509 1508 1508 1508 1508 1507 1506 1506 1505 1505 1504 1503 1503 1502 1501 1501 1500 1499 1498 1497 1498 1497 1496 1496 1496 1496 1495 1496 1495 1495 1495
1508 1507 1508 1508 1508 1508 1507 1506 1506 1505 1505 1504 1503 1502 1502 1501 1500 1500 1499 1499 1496 1495 1495 1494 1493 1493 1492 1492 1492 1491 1492 1492 1491
1507 1506 1507 1507 1507 1507 1506 1506 1505 1505 1504 1503 1502 1501 1500 1499 1499 1498 1497 1496 1494 1493 1493 1492 1491 1490 1489 1487 1487 1487 1487 1488 1488
1506 1505 1506 1506 1506 1505 1505 1505 1504 1503 1502 1501 1501 1499 1498 1497 1496 1495 1494 1493 1492 1491 1489 1488 1487 1486 1485 1483 1482 1481 1481 1482 1482
1505 1506 1506 1506 1505 1504 1503 1502 1501 1500 1499 1498 1497 1496 1496 1495 1493 1492 1490 1490 1489 1487 1485 1484 1482 1481 1480 1477 1477 1476 1475 1475 1475
1506 1505 1505 1504 1503 1502 1502 1500 1499 1499 1498 1496 1495 1494 1492 1491 1489 1488 1487 1486 1484 1483 1481 1479 1478 1476 1474 1472 1471 1470 1469 1468 1468
1503 1503 1503 1502 1501 1500 1500 1499 1497 1496 1495 1493 1492 1490 1488 1486 1485 1484 1482 1481 1479 1478 1476 1474 1473 1471 1468 1466 1465 1464 1463 1462 1460
1502 1502 1502 1501 1500 1498 1497 1495 1494 1492 1490 1488 1487 1485 1483 1482 1480 1478 1477 1474 1473 1472 1470 1469 1467 1466 1464 1461 1459 1458 1456 1455 1454
1500 1500 1499 1498 1497 1495 1494 1492 1490 1489 1486 1484 1483 1481 1479 1477 1475 1472 1470 1468 1466 1465 1464 1462 1460 1458 1457 1455 1453 1453 1450 1448 1446
1497 1497 1497 1496 1494 1493 1491 1489 1488 1485 1482 1479 1477 1475 1473 1472 1469 1466 1464 1462 1461 1460 1459 1456 1455 1453 1452 1450 1448 1447 1444 1441 1438
1496 1496 1495 1494 1492 1491 1489 1486 1484 1480 1477 1474 1471 1469 1467 1464 1461 1460 1459 1459 1457 1455 1453 1451 1449 1448 1446 1444 1442 1439 1437 1434 1431
1495 1495 1494 1492 1491 1489 1486 1483 1480 1476 1471 1469 1466 1464 1462 1460 1458 1457 1456 1455 1452 1449 1447 1444 1442 1441 1438 1436 1433 1431 1428 1426 1423
1495 1494 1493 1491 1488 1485 1482 1479 1476 1473 1468 1463 1459 1457 1456 1453 1453 1453 1452 1449 1446 1444 1441 1439 1436 1433 1430 1427 1425 1422 1419 1417 1414
1493 1492 1490 1488 1486 1482 1479 1475 1473 1470 1466 1462 1456 1451 1449 1450 1449 1445 1444 1442 1440 1438 1436 1433 1429 1426 1422 1419 1417 1414 1410 1407 1405
1490 1489 1487 1485 1482 1479 1476 1473 1470 1467 1465 1463 1461 1456 1451 1443 1442 1440 1439 1437 1435 1432 1428 1425 1421 1418 1415 1412 1409 1407 1403 1400 1397
1488 1486 1484 1482 1479 1476 1474 1471 1469 1466 1463 1461 1460 1459 1456 1448 1435 1434 1432 1430 1427 1423 1419 1416 1414 1412 1408 1405 1402 1398 1395 1391 1389
1486 1483 1480 1478 1475 1473 1471 1469 1466 1464 1461 1459 1455 1453 1449 1446 1440 1426 1424 1423 1420 1416 1413 1409 1407 1404 1401 1397 1393 1390 1386 1383 1381